TimeMDT,TemperatureF,Dew PointF,Humidity,Sea Level PressureIn,VisibilityMPH,Wind Direction,Wind SpeedMPH,Gust SpeedMPH,PrecipitationIn,Events,Conditions,WindDirDegrees,DateUTC
12:53 AM,39.9,18.0,41,30.00,10.0,WNW,23.0,32.2,N/A,,Clear,300,2012-10-18 06:53:00
1:53 AM,39.0,21.0,49,30.03,10.0,WNW,20.7,29.9,N/A,,Clear,300,2012-10-18 07:53:00
2:53 AM,39.0,21.9,50,30.04,10.0,WNW,21.9,29.9,N/A,,Clear,300,2012-10-18 08:53:00
3:53 AM,37.0,21.9,54,30.06,10.0,WNW,17.3,26.5,N/A,,Clear,290,2012-10-18 09:53:00
4:53 AM,35.1,21.9,59,30.09,10.0,West,17.3,23.0,N/A,,Clear,270,2012-10-18 10:53:00
5:53 AM,35.1,23.0,61,30.12,10.0,West,16.1,-,N/A,,Clear,280,2012-10-18 11:53:00
6:53 AM,35.1,21.9,59,30.14,10.0,West,20.7,-,N/A,,Clear,270,2012-10-18 12:53:00
7:53 AM,34.0,21.9,61,30.15,10.0,WNW,19.6,-,N/A,,Clear,290,2012-10-18 13:53:00
8:53 AM,37.9,21.9,53,30.17,10.0,WNW,19.6,-,N/A,,Clear,300,2012-10-18 14:53:00
9:53 AM,41.0,23.0,49,30.18,10.0,WNW,25.3,33.4,N/A,,Clear,300,2012-10-18 15:53:00
10:53 AM,45.0,24.1,44,30.17,10.0,NW,25.3,33.4,N/A,,Clear,310,2012-10-18 16:53:00
11:53 AM,48.0,21.9,36,30.16,10.0,NW,23.0,34.5,N/A,,Clear,320,2012-10-18 17:53:00
12:53 PM,50.0,19.9,31,30.15,10.0,NW,24.2,33.4,N/A,,Clear,320,2012-10-18 18:53:00
1:53 PM,52.0,15.1,23,30.13,10.0,NW,25.3,29.9,N/A,,Clear,320,2012-10-18 19:53:00
2:53 PM,53.1,12.9,20,30.13,10.0,NNW,24.2,32.2,N/A,,Clear,330,2012-10-18 20:53:00
3:53 PM,53.1,15.1,22,30.12,10.0,NNW,23.0,-,N/A,,Clear,340,2012-10-18 21:53:00
4:53 PM,52.0,15.1,23,30.13,10.0,NNW,19.6,-,N/A,,Clear,330,2012-10-18 22:53:00
5:53 PM,48.9,16.0,27,30.13,10.0,NNW,11.5,-,N/A,,Clear,340,2012-10-18 23:53:00
6:53 PM,42.1,19.0,40,30.14,10.0,NNW,8.1,-,N/A,,Clear,330,2012-10-19 00:53:00
7:53 PM,39.9,19.9,45,30.14,10.0,NNW,5.8,-,N/A,,Clear,340,2012-10-19 01:53:00
8:53 PM,41.0,19.0,41,30.13,10.0,North,4.6,-,N/A,,Clear,350,2012-10-19 02:53:00
9:53 PM,36.0,21.0,55,30.12,10.0,SW,3.5,-,N/A,,Clear,220,2012-10-19 03:53:00
10:53 PM,33.1,21.9,64,30.10,10.0,West,5.8,-,N/A,,Clear,260,2012-10-19 04:53:00
11:53 PM,32.0,21.0,64,30.09,10.0,SSE,8.1,-,N/A,,Clear,150,2012-10-19 05:53:00